Location: Newark
(42.9260°N, 89.3850°W)
Time: 02:28:08
(UTC+00:00)

STARLINK 1051 - Pass Details

Date: 11 December 2019
Orbit: 348 x 351 km, 53.0° (Epoch: 26 January)

Event Time Altitude Azimuth Distance (km) Brightness Sun altitude
Exits shadow 11:22:25 47° 162° (SSE) 498 3.5 -20.4°
Drops below altitude 10° 11:24:45 10° 137° (SE) 1,350 6.4 -20.0°
Sets 11:26:46 0° 134° (SE) 2,189 7.7 -19.6°
